Вернуться в каталог

STARLINK-31701

АктивенСвязьVLEO
NORAD 59582·PAYLOAD·🇺🇸 United States

Запущен Apr 23, 2024 с Cape Canaveral Space Force Station

Loading…

Ближайшие Пролёты (ближайшие 24 часа)

TLE

СвежийSource: CelesTrak SupGP

Эпоха: Sep 14, 2026, 22:31 UTC

1 59582C 24076U   26257.93868056  .00010856  00000+0  39326-3 0  2577
2 59582  43.0039  20.2502 0001437 277.2669 149.2543 15.27567356    11

Отслеживайте STARLINK-31701 в реальном времени с AllMySat

Download on the App Store